Powrót do katalogu

STARLINK-6156

AktywnyŁącznośćVLEO
NORAD 56374·PAYLOAD·🇺🇸 United States

Wystrzelony May 4, 2023 z Cape Canaveral Space Force Station

Loading…

Następne Przeloty (najbliższe 24 godziny)

TLE

ŚwieżeSource: CelesTrak SupGP

Epoka: Sep 15, 2026, 01:27 UTC

1 56374C 23061A   26258.06090278 -.00024766  00000+0 -89723-3 0  2588
2 56374  43.0017 208.8595 0000498 278.5083 188.1537 15.27583553    11

Śledź STARLINK-6156 w czasie rzeczywistym z AllMySat

Download on the App Store